カタログに戻る

SL-6 R/B(2)

運用中HEO
NORAD 18949·ROCKET BODY·🇷🇺 Russia

打ち上げ Mar 11, 1988 から Baikonur Cosmodrome

Loading…

次のパス (今後24時間)

TLE

最新Source: Space-Track

元期: Sep 9, 2026, 20:24 UTC

1 18949U 88017D   26252.85060280 -.00000327  00000-0  00000+0 0  9993
2 18949  62.3169 183.1443 7082083 261.6525  19.5916  2.10127079274653

AllMySatでSL-6 R/B(2)をリアルタイム追跡

Download on the App Store